IUS R/B(2)

基本信息
目录编号:
23438
目录名称:
IUS R/B(2)
国际标识:
1994-084D
轨道中心:
EARTH
物体状态:
在轨
发射日期:
1994-12-22 UTC
国别:
美国 (US)
轨道信息
数据来源: 国际轨道数据
星历时间: 2026-07-13T21:18:47+0800
半长轴: 41911.15km
偏心率: 0.0000804
轨道倾角: 14.153°
近地点辐角: 130.834°
升交点赤经: 353.040°
平近点角: 229.203°
近地点: 35529.643km
远地点: 35536.383km
周期: 1423.161分钟
每日圈数: 1.011832
详细信息
发射场:
AFETR
轨道高度:
MEO
数据来源:
AOE Integration Group
参考系:
TEME
时间系统:
UTC
历元类型:
SGP4
2D轨道图
3D轨道图
轨道高度分析图
轨道倾角分析图
轨道综合分析图
查看轨道综合分析图